Погода в Ломах

Россия / Ивановская область     56°52′55″N   40°58′22″E
темп.,
°C
ветер,
м/с
пор.,
м/с
влажн.,
%
обл.,
%
осадки,
мм/ч
давл.,
гПа
погр.,
м
20 апреля, вт
вт2000:00+2в513626 0.0 1028450
03:00+1в5126476 0.0 1028435
06:000в411685 0.0 1027390
09:00+5вюв61052100 0.0 1027644
12:00+8вюв71045100 0.0 10251336
15:00+10вюв71142100 0.0 10231790
18:00+9вюв61246100 0.0 10211641
21:00+6в61349100 0.0 1020784
21 апреля, ср
ср2100:00+5в61254100 0.0 1017900
03:00+2в81791100 1.3 1013842
06:00+2вюв81897100 4.8 10081099
09:00+4вюв91788100 4.8 1006921
12:00+6юв81791100 0.5 10041102
15:00+7юв71592100 0.9 10031132
18:00+4ююз51091100 1.1 1007884
21:00+4ююз51089100 1.1 1009645
22 апреля, чт
чт2200:00+4ююз51092100 0.1 1010661
03:00+4ююз51092100 0.1 1012617
06:00+4ююз4994100 0.0 1013673
09:00+4ююз4897100 0.2 1015514
12:00+8ююз567593 0.1 1016995
15:00+9ю586869 0.1 10161149
18:00+9ю497311 0.1 1017711
21:00+6ю3108852 0.1 1018205
23 апреля, пт
пт2300:00+4ююв3993100 0.0 1018199
03:00+3ююв37945 0.0 1018131
06:00+4ююв39945 0.0 1018220
09:00+10ююв48776 0.0 1017483
12:00+15ю575921 0.0 10171323
15:00+16ю575173 0.7 10151576
18:00+15ю495965 2.1 1015392
21:00+12ююв51271100 2.6 1015416
24 апреля, сб
сб2400:00+11ююв413736 0.0 1014415
03:00+8юв411875 0.0 1013265
06:00+8юв412865 0.0 1012329
09:00+13юв61265100 0.1 1011829
12:00+15ююв7115496 1.0 10091936
15:00+15ююз61060100 3.5 10081515
18:00+8сз3487100 1.8 1008343
21:00+4сз5895100 9.4 1009382